Location: Saint-Usage
(47.1052°N, 5.2587°E)
Time: 02:35:46
(UTC+01:00)

NOAA 19 - Pass Details

Date: 02 December 2021
Orbit: 841 x 860 km, 99.2° (Epoch: 17 January)

Event Time Altitude Azimuth Distance (km) Brightness Sun altitude
Rises 06:47:24 0° 32° (NNE) 3,428 8.5 -12.8°
Reaches altitude 10° 06:51:11 10° 59° (ENE) 2,490 8.2 -12.2°
Maximum altitude 06:53:48 13° 87° (E) 2,251 8.5 -11.8°
Drops below altitude 10° 06:56:25 10° 116° (ESE) 2,487 9.2 -11.4°
Sets 07:00:10 0° 142° (SE) 3,420 9.5 -10.8°
